Погода в Бурцевской

Россия / Архангельская область     62°21′49″N   44°15′48″E
темп.,
°C
ветер,
м/с
пор.,
м/с
влажн.,
%
обл.,
%
осадки,
мм/ч
давл.,
гПа
погр.,
м
7 августа, вс
вс700:00+20ю311700 0.0 1017259
03:00+18ююв311750 0.0 1016251
06:00+21ю413660 0.0 1015413
09:00+26ююз5114646 0.0 1014975
12:00+29ююз694224 0.0 10132020
15:00+23з2671100 0.5 1013188
18:00+18з389599 7.4 1015547
21:00+14ююз0095100 8.6 101611
8 августа, пн
пн800:00+14з2895100 0.0 1017321
03:00+14з2693100 0.0 1018258
06:00+14з2589100 0.0 1020213
09:00+17з2458100 0.0 1021738
12:00+20з3444100 0.0 10221874
15:00+22з3438100 0.0 10212166
18:00+20зсз2551100 0.0 1022244
21:00+14ссз2266100 0.0 102337
9 августа, вт
вт900:00+13ссв1169100 0.0 102411
03:00+12ссв1172100 0.0 102410
06:00+14в116892 0.0 102560
09:00+19в124939 0.0 1025569
12:00+22в2237100 0.0 10251920
15:00+22в1236100 0.0 10242151
18:00+20св2553100 0.0 1023247
21:00+15всв2466100 0.0 102475
10 августа, ср
ср1000:00+13св2670100 0.0 1023100
03:00+11всв2276100 0.0 102343
06:00+13всв2471100 0.0 1023139
09:00+19св254892 0.0 1022587
12:00+22всв343570 0.0 10212188
15:00+23св333379 0.0 10202314
18:00+21с244897 0.0 1020168
21:00+16св116398 0.0 102019
11 августа, чт
чт1100:00+15в1170100 0.0 101914
03:00+14юв118096 0.0 101912
06:00+15ю117690 0.0 101947
09:00+17юз116585 0.0 1019175
12:00+23з243769 0.0 10182519
15:00+23зюз363899 0.0 10162095
18:00+20зюз3853100 0.0 1015509
21:00+15зюз2890100 0.3 1015304